Preview of NWS' New Version of Forecast
This preview is not operational and should not be used for support decisions.

Regional Weather Roundup (RWR)

Issued by Philadelphia/Mt Holly (PHI)

                            
000
ASUS41 KPHI 181012
RWRPHI

REGIONAL WEATHER ROUNDUP
NATIONAL WEATHER SERVICE MOUNT HOLLY NJ
500 AM EST FRI JAN 18 2019

NOTE:  "FAIR" INDICATES FEW OR NO CLOUDS BELOW 12,000 FEET WITH NO
SIGNIFICANT WEATHER AND/OR OBSTRUCTIONS TO VISIBILITY.

 * = STATION DOES NOT REPORT PRECIPITATION (E.G. RAIN, SNOW, ETC.) 
        OR FOG.

NJZ015>026-181100-
SOUTHERN NEW JERSEY
  
CITY           SKY/WX    TMP DP  RH WIND       PRES   REMARKS
POMONA         LGT SNOW  31  30  96 N3        30.10F FOG              
WILDWOOD*      LGT RAIN  33  31  92 NE6       30.09F WCI  28          
MILLVILLE      LGT SNOW  30  29  96 NE3       30.09F FOG              
WRIGHTSTOWN    LGT SNOW  29  28  99 CALM      30.08F FOG              
MOUNT HOLLY    LGT SNOW  29  27  92 E3        30.11F FOG              
TRENTON        LGT SNOW  28  26  92 NE3       30.10F FOG              

$$
NJZ001>014-181100-
NORTHERN NEW JERSEY
  
CITY           SKY/WX    TMP DP  RH WIND       PRES   REMARKS
SUSSEX         MIX PCPN  24  21  88 CALM      30.09F                  
ANDOVER*         N/A     25  22  88 CALM      30.08F                  
MORRISTOWN     MIX PCPN  25  25 100 CALM      30.11F                  
NEWARK         LGT SNOW  28  26  92 NE5       30.13F FOG     WCI  23  
TETERBORO      LGT SNOW  28  25  88 VRB7      30.12F FOG     WCI  21  
CALDWELL       CLOUDY    26  25  96 CALM      30.13F                  
SOMERVILLE     LGT SNOW  28  26  92 CALM      30.09F FOG              
ALLAIRE*       LGT SNOW  31  29  92 CALM      30.12F FOG              

$$
PAZ043-044-047-054-055-060>062-066>071-181100-
EASTERN PENNSYLVANIA
  
CITY           SKY/WX    TMP DP  RH WIND       PRES   REMARKS
PHILADELPHIA   LGT SNOW  30  28  92 NE6       30.11F FOG     WCI  24  
NORTH PHILA    LGT SNOW  30  26  85 NE3       30.12F FOG              
BLUE BELL*     CLOUDY    28  28 100 CALM      30.11F                  
DOYLESTOWN     FLURRIES  27  24  89 CALM      30.08F                  
QUAKERTOWN*    CLOUDY    27  25  93 CALM      30.08F                  
PERKASIE*      LGT SNOW  25  25 100 NE3       30.09F                  
POTTSTOWN      LGT SNOW  26  25  96 E3        30.10F FOG              
LANCASTER      LGT SNOW  29  26  89 E3        30.07F FOG              
COATESVILLE    CLOUDY    27  27 100 E7        30.07F FOG     WCI  19  
READING        FLURRIES  28  27  96 CALM      30.08F                  
ALLENTOWN      LGT SNOW  28  23  81 E3        30.09F                  
MOUNT POCONO   CLOUDY    20  19  96 E3        29.99F FOG              
HAZLETON       FLURRIES N/A N/A N/A SE5       30.02F                  
LEHIGHTON      LGT SNOW  28  27  93 CALM      30.09F                  
WILKES BARRE   LGT SNOW  24  22  91 NE3       30.03F FOG              

$$
DEZALL-MDZ008-012-015-019-020-181100-
DELAWARE AND EASTERN MARYLAND
  
CITY           SKY/WX    TMP DP  RH WIND       PRES   REMARKS
WILMINGTON     LGT SNOW  30  29  96 NE6       30.10F FOG     WCI  24  
DOVER          FLURRIES  33  32  97 NE5       30.08F WCI  28          
GEORGETOWN     MIX PCPN  37  33  85 NE6       30.08F WCI  32          
EASTON         LGT RAIN  34  33  96 E3        30.10F                  
PATUXENT       CLOUDY    35  35 100 CALM      30.06                   
OCEAN CITY     CLOUDY    38  37  97 CALM      30.07F                  
WALLOPS ISLAND CLOUDY    40  36  86 CALM      30.07F                  
CAMBRIDGE      CLOUDY    34  32  93 CALM      30.07F                  
SALISBURY      CLOUDY    36  34  92 CALM      30.07F                  

$$
PAZ001-021-NYZ056-072-MDZ011-DCZ001-181100-
OTHER NEARBY LOCATIONS
  
CITY           SKY/WX    TMP DP  RH WIND       PRES   REMARKS
HARRISBURG     LGT SNOW  28  24  85 E6        30.07F FOG     WCI  22  
STATE COLLEGE  LGT SNOW  26  25  96 CALM      29.99S                  
WILLIAMSPORT   FLURRIES  26  23  88 E7        30.04F WCI  18          
BINGHAMTON     CLOUDY    21  18  88 S7        29.95F WCI  12          
NEW YORK CITY  LGT SNOW  31  28  89 MISG      30.14  FOG              
BALTIMORE      LGT SNOW  32  31  96 E8        30.06F FOG     WCI  25  
WASHINGTON DC  CLOUDY    34  31  88 NE6       30.08F FOG     WCI  29  

$$